Simultaneous Nadir Overpasses (SNOs) Predictions

Prediction of SNOs between GOES-15 and TERRA Satellite Orbit:

Table of predicted SNOs for the next 14.0 days since TLE Epoch: 1/4/2014
Index Date Time (GOES-15) GOES-15 Lat,Lon TERRA Lat,Lon Distance(km) Time Diff (sec)
1 01/05/2014 19:12:57 -0.02,-134.33 -0.70,-131.19 357.16 80
2 01/06/2014 07:37:01 -0.00,-134.33 -0.42,-136.38 232.60 80
3 01/08/2014 07:22:08 0.00,-134.22 0.15,-133.41 91.53 80
4 01/10/2014 07:09:56 0.01,-134.10 0.80,-130.45 415.22 80
5 01/10/2014 19:33:50 0.01,-134.04 0.37,-135.59 177.22 80
6 01/12/2014 19:18:57 0.01,-133.92 -0.24,-132.63 146.01 80
7 01/13/2014 07:43:00 -0.02,-133.91 -0.86,-137.82 444.18 80
8 01/14/2014 19:06:44 0.00,-133.79 -0.86,-129.66 468.86 80
9 01/15/2014 07:30:47 -0.02,-133.79 -0.23,-134.86 121.37 80
10 01/17/2014 07:15:53 -0.02,-133.65 0.35,-131.88 201.24 80
11 01/17/2014 19:39:48 0.04,-133.59 0.74,-137.04 391.51 80




NCC Satellite Simultaneous Nadir Overpasses (SNOs) Prediction Service
